Time,TemperatureF,DewpointF,PressureIn,WindDirection,WindDirectionDegrees,WindSpeedMPH,WindSpeedGustMPH,Humidity,HourlyPrecipIn,Conditions,Clouds,dailyrainin,SoftwareType,DateUTC
2013-01-14 00:22:00,54.0,-99.9,-100.00,East,100,1.0,-999.0,106,0.00,,,-99.99,,2013-01-14 05:22:00,
2013-01-14 00:33:00,54.0,-99.9,-100.00,East,100,1.0,-999.0,106,0.00,,,-99.99,,2013-01-14 05:33:00,
2013-01-14 00:43:00,54.0,-99.9,-100.00,East,100,1.0,-999.0,106,0.00,,,-99.99,,2013-01-14 05:43:00,
2013-01-14 01:23:00,53.0,-99.9,-100.00,SW,221,0.0,-999.0,108,0.00,,,-99.99,,2013-01-14 06:23:00,
2013-01-14 01:33:00,53.0,-99.9,-100.00,SW,221,0.0,-999.0,108,0.00,,,-99.99,,2013-01-14 06:33:00,
2013-01-14 01:43:00,53.0,-99.9,-100.00,SW,221,0.0,-999.0,108,0.00,,,-99.99,,2013-01-14 06:43:00,
2013-01-14 02:23:00,52.0,-99.9,-100.00,ESE,110,1.0,-999.0,110,0.00,,,-99.99,,2013-01-14 07:23:00,
2013-01-14 02:33:00,52.0,-99.9,-100.00,ESE,110,1.0,-999.0,110,0.00,,,-99.99,,2013-01-14 07:33:00,
2013-01-14 02:43:00,52.0,-99.9,-100.00,ESE,110,1.0,-999.0,110,0.00,,,-99.99,,2013-01-14 07:43:00,
2013-01-14 03:22:00,51.0,-99.9,-100.00,ESE,118,0.0,-999.0,111,0.00,,,-99.99,,2013-01-14 08:22:00,
2013-01-14 03:33:00,51.0,-99.9,-100.00,ESE,118,0.0,-999.0,111,0.00,,,-99.99,,2013-01-14 08:33:00,
2013-01-14 03:43:00,51.0,-99.9,-100.00,ESE,118,0.0,-999.0,111,0.00,,,-99.99,,2013-01-14 08:43:00,
2013-01-14 04:23:00,51.0,-99.9,-100.00,South,190,1.0,-999.0,112,0.00,,,-99.99,,2013-01-14 09:23:00,
2013-01-14 04:34:00,51.0,-99.9,-100.00,South,190,1.0,-999.0,112,0.00,,,-99.99,,2013-01-14 09:34:00,
2013-01-14 04:43:00,51.0,-99.9,-100.00,South,190,1.0,-999.0,112,0.00,,,-99.99,,2013-01-14 09:43:00,
2013-01-14 05:23:00,51.0,-99.9,-100.00,South,178,1.0,-999.0,113,0.00,,,-99.99,,2013-01-14 10:23:00,
2013-01-14 05:33:00,51.0,-99.9,-100.00,South,178,1.0,-999.0,113,0.00,,,-99.99,,2013-01-14 10:33:00,
2013-01-14 05:43:00,51.0,-99.9,-100.00,South,178,1.0,-999.0,113,0.00,,,-99.99,,2013-01-14 10:43:00,
2013-01-14 06:23:00,51.0,-99.9,-100.00,SW,231,0.0,-999.0,114,0.00,,,-99.99,,2013-01-14 11:23:00,
2013-01-14 06:33:00,51.0,-99.9,-100.00,SW,231,0.0,-999.0,114,0.00,,,-99.99,,2013-01-14 11:33:00,
2013-01-14 06:43:00,51.0,-99.9,-100.00,SW,231,0.0,-999.0,114,0.00,,,-99.99,,2013-01-14 11:43:00,
2013-01-14 07:23:00,53.0,-99.9,-100.00,West,276,2.0,-999.0,115,0.00,,,-99.99,,2013-01-14 12:23:00,
2013-01-14 07:33:00,53.0,-99.9,-100.00,West,276,2.0,-999.0,115,0.00,,,-99.99,,2013-01-14 12:33:00,
2013-01-14 07:43:00,53.0,-99.9,-100.00,West,276,2.0,-999.0,115,0.00,,,-99.99,,2013-01-14 12:43:00,
2013-01-14 08:23:00,51.0,-99.9,-100.00,SE,130,2.0,-999.0,115,0.00,,,-99.99,,2013-01-14 13:23:00,
2013-01-14 08:34:00,51.0,-99.9,-100.00,SE,130,2.0,-999.0,115,0.00,,,-99.99,,2013-01-14 13:34:00,
2013-01-14 08:43:00,51.0,-99.9,-100.00,SE,130,2.0,-999.0,115,0.00,,,-99.99,,2013-01-14 13:43:00,
2013-01-14 09:23:00,53.0,-99.9,-100.00,SE,136,2.0,-999.0,115,0.00,,,-99.99,,2013-01-14 14:23:00,
2013-01-14 09:33:00,53.0,-99.9,-100.00,SE,136,2.0,-999.0,115,0.00,,,-99.99,,2013-01-14 14:33:00,
2013-01-14 09:43:00,53.0,-99.9,-100.00,SE,136,2.0,-999.0,115,0.00,,,-99.99,,2013-01-14 14:43:00,
2013-01-14 10:24:00,56.0,-99.9,-100.00,South,173,3.0,-999.0,114,0.00,,,-99.99,,2013-01-14 15:24:00,
2013-01-14 10:34:00,56.0,-99.9,-100.00,South,173,3.0,-999.0,114,0.00,,,-99.99,,2013-01-14 15:34:00,
2013-01-14 10:43:00,56.0,-99.9,-100.00,South,173,3.0,-999.0,114,0.00,,,-99.99,,2013-01-14 15:43:00,
2013-01-14 11:23:00,59.0,-99.9,-100.00,SW,236,8.0,-999.0,112,0.00,,,-99.99,,2013-01-14 16:23:00,
2013-01-14 11:33:00,59.0,-99.9,-100.00,SW,236,8.0,-999.0,112,0.00,,,-99.99,,2013-01-14 16:33:00,
2013-01-14 11:43:00,59.0,-99.9,-100.00,SW,236,8.0,-999.0,112,0.00,,,-99.99,,2013-01-14 16:43:00,
2013-01-14 12:23:00,64.0,60.0,-100.00,SW,220,10.0,-999.0,87,0.00,,,-99.99,,2013-01-14 17:23:00,
2013-01-14 12:33:00,64.0,60.0,-100.00,SW,220,10.0,-999.0,87,0.00,,,-99.99,,2013-01-14 17:33:00,
2013-01-14 12:43:00,64.0,60.0,-100.00,SW,220,10.0,-999.0,87,0.00,,,-99.99,,2013-01-14 17:43:00,
2013-01-14 13:13:00,72.0,63.0,-100.00,SW,215,10.0,-999.0,71,0.00,,,-99.99,,2013-01-14 18:13:00,
2013-01-14 13:23:00,72.0,63.0,-100.00,SW,215,10.0,-999.0,71,0.00,,,-99.99,,2013-01-14 18:23:00,
2013-01-14 13:33:00,72.0,63.0,-100.00,SW,215,10.0,-999.0,71,0.00,,,-99.99,,2013-01-14 18:33:00,
2013-01-14 13:43:00,72.0,63.0,-100.00,SW,215,10.0,-999.0,71,0.00,,,-99.99,,2013-01-14 18:43:00,
2013-01-14 14:22:00,74.0,63.0,-100.00,SW,217,10.0,-999.0,68,0.00,,,-99.99,,2013-01-14 19:22:00,
2013-01-14 14:33:00,74.0,63.0,-100.00,SW,217,10.0,-999.0,68,0.00,,,-99.99,,2013-01-14 19:33:00,
2013-01-14 14:43:00,74.0,63.0,-100.00,SW,217,10.0,-999.0,68,0.00,,,-99.99,,2013-01-14 19:43:00,
2013-01-14 15:23:00,75.0,62.0,-100.00,SW,214,11.0,-999.0,64,0.00,,,-99.99,,2013-01-14 20:23:00,
2013-01-14 15:33:00,75.0,62.0,-100.00,SW,214,11.0,-999.0,64,0.00,,,-99.99,,2013-01-14 20:33:00,
2013-01-14 15:43:00,75.0,62.0,-100.00,SW,214,11.0,-999.0,64,0.00,,,-99.99,,2013-01-14 20:43:00,
2013-01-14 16:23:00,75.0,63.0,-100.00,SSW,209,12.0,-999.0,66,0.00,,,-99.99,,2013-01-14 21:23:00,
2013-01-14 16:33:00,75.0,63.0,-100.00,SSW,209,12.0,-999.0,66,0.00,,,-99.99,,2013-01-14 21:33:00,
2013-01-14 16:43:00,75.0,63.0,-100.00,SSW,209,12.0,-999.0,66,0.00,,,-99.99,,2013-01-14 21:43:00,
2013-01-14 17:23:00,72.0,61.0,-100.00,SW,215,9.0,-999.0,68,0.00,,,-99.99,,2013-01-14 22:23:00,
2013-01-14 17:33:00,72.0,61.0,-100.00,SW,215,9.0,-999.0,68,0.00,,,-99.99,,2013-01-14 22:33:00,
2013-01-14 17:43:00,72.0,61.0,-100.00,SW,215,9.0,-999.0,68,0.00,,,-99.99,,2013-01-14 22:43:00,
2013-01-14 18:23:00,67.0,62.0,-100.00,SSW,205,7.0,-999.0,83,0.00,,,-99.99,,2013-01-14 23:23:00,
2013-01-14 18:33:00,67.0,62.0,-100.00,SSW,205,7.0,-999.0,83,0.00,,,-99.99,,2013-01-14 23:33:00,
2013-01-14 18:43:00,67.0,62.0,-100.00,SSW,205,7.0,-999.0,83,0.00,,,-99.99,,2013-01-14 23:43:00,
2013-01-14 19:23:00,63.0,60.0,-100.00,SSW,205,6.0,-999.0,88,0.00,,,-99.99,,2013-01-15 00:23:00,
2013-01-14 19:33:00,63.0,60.0,-100.00,SSW,205,6.0,-999.0,88,0.00,,,-99.99,,2013-01-15 00:33:00,
2013-01-14 19:43:00,63.0,60.0,-100.00,SSW,205,6.0,-999.0,88,0.00,,,-99.99,,2013-01-15 00:43:00,
2013-01-14 20:12:00,62.0,60.0,-100.00,SSW,210,4.0,-999.0,93,-99.99,,,-99.99,,2013-01-15 01:12:00,
2013-01-14 20:23:00,62.0,60.0,-100.00,SSW,210,4.0,-999.0,93,0.00,,,-99.99,,2013-01-15 01:23:00,
2013-01-14 20:32:00,62.0,60.0,-100.00,SSW,210,4.0,-999.0,93,0.00,,,-99.99,,2013-01-15 01:32:00,
2013-01-14 20:43:00,62.0,60.0,-100.00,SSW,210,4.0,-999.0,93,0.00,,,-99.99,,2013-01-15 01:43:00,
2013-01-14 21:23:00,60.0,59.0,-100.00,SSW,195,5.0,-999.0,95,0.00,,,-99.99,,2013-01-15 02:23:00,
2013-01-14 21:33:00,60.0,59.0,-100.00,SSW,195,5.0,-999.0,95,0.00,,,-99.99,,2013-01-15 02:33:00,
2013-01-14 21:42:00,60.0,59.0,-100.00,SSW,195,5.0,-999.0,95,0.00,,,-99.99,,2013-01-15 02:42:00,
2013-01-14 22:22:00,58.0,-99.9,-100.00,SSW,199,4.0,-999.0,101,0.00,,,-99.99,,2013-01-15 03:22:00,
2013-01-14 22:33:00,58.0,-99.9,-100.00,SSW,199,4.0,-999.0,101,0.00,,,-99.99,,2013-01-15 03:33:00,
2013-01-14 22:43:00,58.0,-99.9,-100.00,SSW,199,4.0,-999.0,101,0.00,,,-99.99,,2013-01-15 03:43:00,
2013-01-14 23:22:00,57.0,-99.9,-100.00,SSW,206,4.0,-999.0,103,0.00,,,-99.99,,2013-01-15 04:22:00,
2013-01-14 23:33:00,57.0,-99.9,-100.00,SSW,206,4.0,-999.0,103,0.00,,,-99.99,,2013-01-15 04:33:00,
2013-01-14 23:43:00,57.0,-99.9,-100.00,SSW,206,4.0,-999.0,103,0.00,,,-99.99,,2013-01-15 04:43:00,